This is the latest recevied weather packets stored in our database for station/object W9QL-13. If no packets are shown the sender has not sent any weather packets the latest 10 day(s).
| Time | Temp. | Humidity | Pressure | Rain* | Wind** | Luminosity | Snow |
|---|---|---|---|---|---|---|---|
| 1778252360 | 16.67° C | 44% | 1009.8 hPa | 0 mm | - | - | - |
| 1778252030 | 16.67° C | 46% | 1009.9 hPa | 0 mm | - | - | - |
| 1778251700 | 16.11° C | 48% | 1009.9 hPa | 0 mm | - | - | - |
| 1778251372 | 15.56° C | 48% | 1009.9 hPa | 0 mm | - | - | - |
| 1778251070 | 15.56° C | 51% | 1009.8 hPa | 0 mm | - | - | - |
| 1778250742 | 15° C | 56% | 1009.8 hPa | 0 mm | - | - | - |
| 1778250410 | 15° C | 54% | 1009.9 hPa | 0 mm | - | - | - |
| 1778250080 | 14.44° C | 59% | 1009.9 hPa | 0 mm | - | - | - |
| 1778249780 | 13.89° C | 63% | 1010 hPa | 0 mm | - | - | - |
| 1778249480 | 13.33° C | 67% | 1010 hPa | 0 mm | - | - | - |
| 1778249180 | 12.78° C | 71% | 1010.1 hPa | 0 mm | - | - | - |
| 1778248880 | 12.22° C | 74% | 1010 hPa | 0 mm | - | - | - |
| 1778248580 | 11.67° C | 74% | 1010.1 hPa | 0 mm | - | - | - |
| 1778248250 | 11.67° C | 76% | 1010.2 hPa | 0 mm | - | - | - |
| 1778247950 | 11.11° C | 78% | 1010.2 hPa | 0 mm | - | - | - |
| 1778247650 | 10.56° C | 80% | 1010.3 hPa | 0 mm | - | - | - |
| 1778247350 | 10.56° C | 84% | 1010.3 hPa | 0 mm | - | - | - |
| 1778247020 | 10° C | 85% | 1010.3 hPa | 0 mm | - | - | - |
| 1778246690 | 8.89° C | 86% | 1010.3 hPa | 0 mm | - | - | - |
| 1778246360 | 8.89° C | 87% | 1010.3 hPa | 0 mm | - | - | - |
| 1778246060 | 8.33° C | 88% | 1010.4 hPa | 0 mm | - | - | - |
| 1778245761 | 8.33° C | 88% | 1010.4 hPa | 0 mm | - | - | - |
| 1778245430 | 7.78° C | 88% | 1010.4 hPa | 0 mm | - | - | - |
| 1778245100 | 7.78° C | 88% | 1010.4 hPa | 0 mm | - | - | - |
| 1778244800 | 7.22° C | 88% | 1010.5 hPa | 0 mm | - | - | - |
* Rain latest hour (hover to see other rain measurements)
** Current wind speed in m/s (hover to see current wind gust speed)